Overview Statistics Trail Chart Weather Telemetry Raw packets
 

This is the latest recevied weather packets stored in our database for station/object DG1ROH. If no packets are shown the sender has not sent any weather packets the latest 10 day(s).

<< 98 99 100 101 102 103 104 >>
Time Temp. Humidity Pressure Rain* Wind** Luminosity Snow
1777483229 12.78° C 41% 1029 hPa 0 mm - 19 W/m² -
1777483109 12.78° C 39% 1029 hPa 0 mm - 21 W/m² -
1777482989 12.78° C 39% 1029 hPa 0 mm - 21 W/m² -
1777482869 12.78° C 38% 1029 hPa 0 mm - 21 W/m² -
1777482751 12.78° C 38% 1029.1 hPa 0 mm - 23 W/m² -
1777482629 12.78° C 41% 1029 hPa 0 mm - 23 W/m² -
1777482508 12.78° C 42% 1029 hPa 0 mm - 25 W/m² -
1777482390 12.78° C 39% 1029 hPa 0 mm - 25 W/m² -
1777482269 12.78° C 39% 1029 hPa 0 mm - 26 W/m² -
1777482151 12.78° C 38% 1029 hPa 0 mm - 26 W/m² -
1777482030 12.78° C 40% 1029 hPa 0 mm - 26 W/m² -
1777481909 12.78° C 39% 1028.9 hPa 0 mm - 28 W/m² -
1777481788 12.78° C 38% 1028.9 hPa 0 mm - 28 W/m² -
1777481666 12.78° C 40% 1028.9 hPa 0 mm - 28 W/m² -
1777481545 12.78° C 39% 1028.9 hPa 0 mm - 30 W/m² -
1777481423 12.78° C 38% 1028.9 hPa 0 mm - 30 W/m² -
1777481304 12.78° C 37% 1028.9 hPa 0 mm - 40 W/m² -
1777481184 13.33° C 39% 1028.9 hPa 0 mm - 35 W/m² -
1777481061 13.33° C 38% 1029 hPa 0 mm - 46 W/m² -
1777480944 13.33° C 39% 1029 hPa 0 mm - 53 W/m² -
1777480819 13.33° C 37% 1028.9 hPa 0 mm - 33 W/m² -
1777480699 13.33° C 37% 1028.9 hPa 0 mm - 47 W/m² -
1777480579 13.33° C 38% 1028.9 hPa 0 mm - 39 W/m² -
1777480461 13.33° C 38% 1028.9 hPa 0 mm - 49 W/m² -
1777480340 13.33° C 36% 1028.8 hPa 0 mm - 62 W/m² -

* Rain latest hour (hover to see other rain measurements)
** Current wind speed in m/s (hover to see current wind gust speed)